Lapse_Rate
8.0 8.3 8.4 8.7 8.5 8.1 8.1 8.1 8.4 8.5 8.3 8.0 8.3 8.3 8.4 8.6 8.8 8.7 8.3 8.3 7.5 7.0 6.8 6.8 6.9 7.0 7.0 7.0 6.8 6.7 6.6 6.4 6.4 6.2 5.9 5.8 5.8 5.8 5.6 5.6 5.6 5.7 5.5 5.5
7.7 7.7 8.6 8.7 8.8 8.3 8.0 8.2 8.4 8.5 8.6 8.1 7.9 8.1 8.3 8.5 8.7 8.6 8.4 8.3 8.2 7.9 7.4 7.1 7.1 7.1 7.0 6.7 6.6 6.5 6.4 6.1 5.8 5.6 5.5 5.6 5.8 5.9 5.8 5.6 5.6 5.6 5.8 5.7
7.8 8.2 8.6 8.2 8.5 8.5 8.8 9.2 9.3 8.8 8.7 8.1 7.9 7.8 8.2 8.4 8.3 8.3 8.5 8.3 8.3 7.8 7.8 7.7 7.6 7.2 7.1 6.8 6.6 6.4 6.3 6.2 6.2 6.0 6.1 6.1 6.0 5.8 5.5 5.3 5.4 5.6 5.8 5.6
8.0 8.4 8.3 8.2 8.5 8.7 9.1 9.2 8.8 8.8 8.7 8.0 7.7 7.8 8.2 8.3 8.4 8.4 8.7 8.6 8.4 8.1 7.9 7.8 7.9 7.7 7.1 6.6 6.5 6.7 7.1 6.9 6.7 6.4 6.6 6.6 6.3 6.0 5.8 6.0 5.8 5.5 5.7 5.7
7.9 8.3 8.2 8.4 9.1 9.0 9.1 8.7 9.0 9.1 8.2 8.0 7.5 7.7 8.7 8.6 8.6 8.8 8.7 8.9 8.4 7.8 7.8 7.8 7.8 7.6 7.0 7.1 7.3 7.1 7.6 7.2 6.6 6.9 6.9 6.5 6.7 6.8 6.7 6.8 6.3 5.9 5.5 5.8
8.1 8.4 8.3 8.6 8.9 8.9 9.0 8.8 8.8 8.4 7.7 7.4 8.4 7.6 8.4 8.9 9.4 9.3 9.0 8.9 8.9 8.4 8.0 8.0 7.8 7.3 7.7 8.0 7.8 7.3 7.4 7.0 7.3 7.5 7.3 7.1 7.0 6.9 7.1 7.0 7.4 6.8 6.2 6.2
7.7 7.6 8.3 8.5 8.5 8.8 9.0 8.4 7.6 6.8 6.6 7.0 8.1 7.4 8.6 9.0 9.3 9.4 9.3 9.2 9.1 8.9 8.5 8.2 8.1 7.9 8.0 8.3 8.0 7.5 7.1 7.4 7.4 7.2 7.2 7.0 7.1 7.5 7.0 6.5 7.3 7.0 6.8 6.4
7.1 7.4 8.1 8.5 8.4 8.8 9.1 8.8 8.4 6.8 5.7 7.7 8.0 7.3 8.9 9.0 9.2 9.2 9.4 9.2 9.0 8.9 8.8 8.5 8.1 7.9 7.6 8.0 7.7 7.3 7.5 7.2 7.2 7.1 7.2 7.1 7.4 7.1 7.1 6.8 6.4 6.5 6.4 6.4
7.4 7.6 8.4 8.5 9.1 9.0 8.9 8.9 8.8 8.5 7.4 7.5 8.0 8.4 9.0 9.1 9.2 9.4 9.3 9.3 8.9 8.6 8.7 8.6 8.2 7.8 7.7 7.6 7.5 7.3 7.3 7.1 7.1 7.1 7.4 7.0 7.1 6.7 6.7 6.3 6.2 6.0 5.8 6.0
7.5 7.9 8.2 8.7 8.6 8.6 8.8 8.9 8.4 8.2 6.0 6.8 7.5 8.3 8.9 9.1 8.8 9.4 9.4 9.4 8.9 8.7 8.7 8.5 8.2 8.1 7.8 7.7 7.5 7.3 7.3 7.3 7.1 7.1 7.2 7.0 6.9 6.6 6.1 6.0 6.0 6.1 5.9 5.5
7.3 7.6 8.0 8.1 8.1 8.3 8.3 8.3 8.4 8.3 8.0 6.3 5.9 8.2 9.0 8.9 8.8 9.1 9.2 9.0 8.7 8.5 8.7 8.6 8.4 8.2 8.2 7.9 7.7 7.4 7.2 7.2 7.2 6.8 6.7 6.6 6.4 6.3 6.1 6.2 6.0 6.1 6.1 6.0
7.4 7.3 7.8 8.0 8.2 8.3 8.4 8.5 8.8 8.7 7.7 7.9 7.9 8.3 8.9 8.8 8.8 9.0 9.1 9.0 8.7 8.6 8.8 8.6 8.5 8.4 8.3 8.1 7.8 7.6 7.6 7.4 7.2 6.9 6.7 6.5 6.3 6.3 6.1 6.1 6.0 6.2 6.4 6.5
7.6 7.1 7.3 7.8 7.8 7.7 8.1 8.0 8.5 8.3 8.2 8.5 7.9 8.4 8.7 8.8 8.9 9.0 8.9 8.9 8.9 9.2 9.1 9.0 8.8 8.6 8.4 8.4 8.1 7.9 7.8 7.7 7.4 7.1 6.8 6.6 6.4 6.3 6.1 6.2 6.3 6.3 6.4 6.5
7.9 7.6 7.4 7.4 7.7 7.7 7.7 8.0 8.1 8.3 8.0 8.3 8.4 8.9 9.0 9.1 9.0 9.0 9.0 8.9 9.1 9.2 9.1 9.0 8.9 8.8 8.6 8.5 8.2 7.9 7.6 7.4 7.2 6.9 6.8 6.9 6.6 6.3 6.3 6.3 6.3 6.3 6.3 6.4
7.6 7.3 7.5 7.7 8.2 8.1 8.1 8.1 8.4 8.3 8.4 8.0 8.4 8.7 9.0 9.2 9.3 9.2 9.0 9.0 8.9 8.9 8.9 9.0 8.9 8.6 8.5 8.2 8.1 7.9 7.8 7.5 7.0 6.7 6.6 6.6 6.5 6.5 6.3 6.3 6.5 6.4 6.4 6.3
8.0 7.0 7.2 7.6 8.1 8.2 8.0 8.1 8.3 8.4 8.4 8.2 8.3 8.5 9.0 9.2 9.3 9.3 9.2 8.9 8.8 8.7 8.5 8.5 8.5 8.4 8.4 8.2 8.0 8.0 7.8 7.7 7.6 7.3 6.9 6.7 6.6 6.3 6.5 6.5 6.4 6.3 6.2 6.1
7.2 6.8 7.1 7.2 8.0 8.1 7.8 7.6 7.9 8.3 8.5 8.5 8.5 9.0 8.9 9.3 9.3 9.4 9.4 9.1 8.9 8.7 8.4 8.5 8.3 8.0 8.0 7.8 7.7 7.7 7.6 7.5 7.5 7.1 6.7 7.0 6.8 6.5 6.5 6.6 6.5 6.4 6.3 6.5
7.1 7.0 7.2 7.0 7.6 6.6 6.9 7.9 8.3 8.5 8.5 8.6 8.6 8.8 9.0 9.3 9.4 9.3 9.3 8.9 8.9 8.8 8.7 8.5 8.1 8.1 7.8 7.6 7.6 7.4 7.2 7.2 7.1 7.0 6.8 6.6 6.2 6.0 6.0 6.1 6.2 6.4 6.5 6.4
7.2 7.2 7.3 7.2 7.4 7.0 7.3 7.7 8.3 8.3 8.2 8.4 8.9 9.0 9.0 9.0 8.8 8.7 8.9 8.7 8.8 8.8 8.7 8.4 8.2 8.1 7.7 7.6 7.5 7.3 7.1 6.9 6.6 6.3 6.0 5.8 5.6 5.7 5.9 6.1 6.2 6.0 6.0 6.0
7.7 7.3 7.4 7.4 7.7 5.9 7.3 7.5 8.3 8.8 8.5 9.0 8.8 9.1 9.3 9.3 8.9 9.0 8.8 8.6 8.6 8.5 8.4 8.3 8.3 8.1 7.9 7.7 7.8 7.7 7.3 6.7 6.3 6.2 5.8 5.6 5.8 5.9 6.1 6.0 5.8 5.7 5.7 5.9
8.3 7.9 7.4 7.3 7.9 8.1 8.1 8.4 8.5 8.2 7.9 8.7 9.2 9.4 9.4 9.3 9.3 9.4 9.0 8.6 8.1 8.1 8.1 8.0 8.1 8.0 7.9 7.8 7.8 7.4 6.9 6.6 6.4 5.9 5.8 5.8 5.9 6.1 6.0 5.7 5.6 5.7 6.0 6.2
8.7 8.3 7.9 7.7 7.9 8.2 8.3 8.7 8.6 8.1 8.5 8.8 9.1 9.2 9.2 9.2 9.2 9.4 9.3 8.9 8.6 8.0 7.9 7.8 8.0 8.0 7.9 7.7 7.3 7.0 6.9 6.4 6.0 5.9 5.8 5.9 6.1 6.1 6.0 5.9 6.0 6.4 6.4 6.5
8.9 8.9 8.7 8.5 8.3 8.6 8.4 8.7 8.9 9.1 9.0 9.1 9.0 9.0 8.9 8.9 8.9 9.2 9.1 8.6 8.5 8.0 7.8 7.9 7.9 8.0 7.7 7.3 7.3 7.0 6.5 6.1 5.9 6.0 6.2 6.3 6.2 6.0 6.0 6.0 6.2 6.3 6.4 6.6
8.9 8.9 9.1 9.1 9.0 8.8 8.9 8.9 9.1 9.2 9.3 9.1 9.1 9.1 8.9 8.9 8.8 8.8 8.7 8.3 7.9 7.6 7.6 7.8 8.0 7.7 7.4 7.4 7.0 6.5 6.1 6.0 6.2 6.4 6.3 6.1 6.0 6.0 6.1 6.3 6.3 6.3 6.6 6.7
8.8 8.9 8.9 9.0 8.9 9.1 9.1 9.2 9.4 9.3 9.2 9.3 9.2 9.1 8.9 9.0 8.8 8.7 8.8 8.0 7.7 7.8 7.9 7.9 7.4 7.3 7.4 7.3 6.6 6.3 6.2 6.4 6.4 6.3 6.0 5.9 6.0 6.1 6.1 6.2 6.4 6.7 6.8 6.7
8.6 8.7 8.8 8.8 9.1 9.1 9.2 9.2 9.2 9.2 9.2 9.2 9.1 9.0 9.0 8.9 8.5 8.2 8.2 8.1 7.8 7.7 7.7 7.6 7.0 7.4 7.2 6.6 6.2 6.2 6.4 6.5 6.4 6.1 6.0 6.0 6.1 6.1 6.2 6.5 6.9 6.9 6.7 6.6
Wind_Speed
2 4 5 8 6 5 5 6 6 6 5 5 8 5 11 13 11 10 9 9 8 11 9 9 11 11 11 10 9 10 8 8 4 2 1 2 4 3 2 6 9 6 7 4
4 6 5 7 7 8 7 6 6 4 4 10 6 4 8 13 14 11 11 10 11 9 7 9 10 10 10 9 8 5 7 5 5 3 2 3 2 3 3 4 4 4 8 8
7 5 6 7 5 4 4 5 4 5 4 4 7 2 7 7 10 9 11 12 12 14 13 10 11 13 10 9 9 9 8 7 6 6 3 2 2 2 2 2 1 3 7 7
4 4 5 3 3 7 5 7 7 9 7 5 2 4 6 9 13 12 15 15 15 16 14 13 14 12 11 10 9 8 9 10 8 7 5 7 5 4 2 2 2 3 5 3
9 7 5 5 8 7 8 3 2 6 6 6 1 3 6 8 11 19 18 17 18 17 18 18 17 15 13 11 12 11 10 8 9 11 11 8 7 6 3 3 4 4 1 2
5 3 5 8 4 9 3 6 9 7 4 2 6 6 5 6 16 17 18 18 19 18 18 17 16 13 13 11 10 10 9 10 11 12 12 12 11 8 4 5 4 3 2 1
1 5 3 3 4 1 5 6 3 3 2 5 2 5 10 9 13 17 22 23 20 18 17 16 14 13 12 14 13 12 11 16 14 14 12 11 10 10 10 6 3 4 2 1
7 3 8 4 9 8 6 8 6 6 5 3 3 5 7 5 9 9 13 20 14 15 16 17 14 15 17 17 15 14 15 16 13 13 13 9 7 6 4 4 4 4 3 4
6 6 4 6 5 10 5 3 5 8 3 3 3 7 10 5 5 5 10 9 13 15 17 18 12 16 17 16 18 18 17 16 13 13 8 7 8 6 5 5 3 4 3 1
7 2 5 3 5 4 5 7 3 3 5 4 4 4 5 7 6 4 8 12 13 10 12 9 13 16 15 15 16 17 15 17 12 9 9 8 8 6 6 5 3 1 2 1
6 3 3 3 5 9 2 2 6 6 4 6 2 6 6 7 6 8 9 9 9 9 9 11 12 13 14 13 13 13 12 10 8 9 9 8 7 5 2 1 2 3 3 3
7 4 4 7 1 1 4 7 6 5 4 1 4 6 5 8 9 7 9 8 5 6 9 9 10 10 9 9 10 10 5 7 5 5 5 5 2 4 4 3 2 2 4 4
8 2 2 8 5 2 4 4 5 6 4 7 7 5 3 3 4 4 6 5 5 8 9 8 9 8 8 7 6 6 6 5 5 5 5 3 1 2 2 4 3 3 4 4
13 5 9 9 6 5 4 5 5 7 5 6 6 5 5 7 9 7 4 4 6 7 10 8 8 8 8 8 8 6 5 5 4 4 4 4 3 3 3 4 5 5 5 4
7 8 7 7 8 6 5 5 9 6 6 7 9 11 12 15 16 7 5 3 8 10 10 9 10 9 8 7 6 5 5 5 4 5 4 3 2 2 2 2 2 3 4 4
3 4 7 6 8 9 8 9 9 5 4 2 6 6 7 2 6 7 10 9 9 11 12 11 11 10 8 7 6 6 6 5 5 6 5 4 4 4 4 4 5 5 4 3
0 6 4 8 3 7 6 17 6 5 5 7 6 12 8 6 11 11 9 7 11 13 14 13 13 10 8 8 9 8 7 6 7 7 5 5 4 5 5 4 4 4 4 5
4 3 4 6 3 5 7 6 13 11 9 8 3 7 16 17 9 8 6 10 12 14 14 13 11 10 9 9 10 10 8 7 7 7 6 6 6 6 6 5 5 5 3 4
7 5 2 5 5 6 5 4 8 8 9 10 9 7 6 11 7 4 6 7 10 13 13 12 10 11 10 10 10 11 9 7 7 7 7 6 6 5 5 6 6 4 5 5
8 4 4 3 7 11 14 6 6 3 9 9 8 14 18 13 8 6 11 12 10 9 12 15 13 12 12 7 10 12 8 7 7 5 5 6 6 6 6 6 6 4 4 4
5 3 8 3 4 8 8 8 7 8 11 8 11 15 19 14 6 12 18 14 12 13 16 14 13 12 9 8 11 10 7 7 4 5 6 6 5 5 4 3 3 3 5 5
8 7 5 3 3 7 7 5 17 9 0 7 9 14 16 9 16 23 21 19 18 17 15 14 13 11 8 8 11 8 7 3 4 4 4 5 5 4 4 5 5 5 5 6
3 7 7 9 8 5 4 1 4 5 7 8 9 7 11 14 16 19 21 20 18 18 16 13 13 12 8 9 7 8 3 4 4 4 4 4 4 5 6 6 7 5 4 4
3 3 5 4 5 6 4 2 1 2 3 7 7 18 19 21 19 19 17 16 14 14 13 13 14 12 10 6 6 6 5 4 4 4 3 3 4 5 5 4 4 4 5 5
5 6 6 4 2 1 3 5 4 4 9 15 14 18 21 23 19 21 19 17 14 13 12 11 11 11 9 7 6 5 4 4 4 4 3 4 3 3 3 3 4 4 3 4
3 6 5 5 8 5 5 5 7 8 11 18 24 18 19 25 23 20 17 15 15 14 13 11 11 11 7 7 6 4 3 4 4 4 3 2 3 3 3 3 4 7 6 3
Wind_Direction
28 90 207 202 148 147 138 168 203 219 197 149 192 177 192 190 209 213 206 200 199 214 215 202 202 198 196 201 201 209 201 208 173 162 190 235 238 259 261 253 270 303 290 249
49 211 199 107 137 145 146 165 248 299 202 177 161 205 188 196 215 218 205 211 212 220 198 201 200 197 196 198 203 212 229 217 206 198 206 205 211 252 243 221 234 220 237 254
165 186 137 133 159 174 201 192 186 180 118 56 122 335 178 214 217 217 221 214 218 212 210 200 202 203 195 192 192 204 209 209 207 202 197 230 246 243 242 265 225 210 209 232
225 219 151 124 195 147 256 194 242 151 141 177 156 250 222 209 212 220 218 206 210 209 215 210 201 199 195 198 192 197 206 203 202 188 212 220 236 246 247 236 265 259 221 224
233 180 158 178 215 164 225 56 19 160 108 106 304 61 256 170 222 223 223 212 212 206 204 208 208 195 191 193 199 198 203 208 216 208 205 208 227 235 212 210 271 287 67 216
199 250 173 194 169 175 125 77 41 51 76 15 193 147 279 185 218 228 217 222 212 210 209 209 206 187 187 193 195 199 194 213 210 210 215 213 215 233 218 225 226 283 328 156
219 240 238 156 42 3 88 72 32 37 345 211 153 116 242 237 242 216 202 216 210 204 205 206 187 181 183 187 189 198 198 220 217 214 223 220 220 217 230 246 230 196 199 251
158 251 163 182 183 181 174 158 149 184 187 198 38 225 253 242 256 234 212 212 209 202 207 208 178 177 188 188 187 192 204 220 212 222 224 221 210 226 207 219 241 229 191 195
142 259 249 191 159 141 185 147 167 102 12 73 209 280 307 259 310 197 194 183 203 199 203 207 170 182 187 185 191 194 205 222 209 212 217 213 205 197 203 231 201 246 87 355
202 178 221 154 118 37 140 153 93 14 132 210 272 267 236 326 327 314 188 191 202 197 197 168 181 187 186 186 193 200 202 213 204 190 197 210 208 188 203 204 250 322 56 332
149 100 270 121 179 163 108 115 54 110 116 155 172 266 212 241 254 226 225 220 196 181 163 177 180 184 185 185 186 197 206 201 175 175 184 197 205 204 123 92 45 47 74 340
189 143 211 205 160 355 146 168 139 132 219 105 141 267 262 258 236 207 226 223 198 165 169 167 162 151 156 164 177 191 172 173 155 142 155 181 157 98 105 100 349 328 309 308
177 221 19 336 356 44 174 179 119 115 90 187 141 252 322 270 203 190 194 182 129 136 130 126 126 134 133 125 113 105 113 135 137 142 160 144 103 69 20 324 322 296 307 319
149 148 176 207 190 163 173 176 165 131 126 174 210 188 242 218 207 216 177 116 107 122 131 121 108 111 114 115 123 129 129 134 139 131 94 85 34 356 331 326 337 329 318 306
140 193 179 218 199 177 216 179 162 162 187 163 223 187 208 202 201 183 155 131 127 123 118 118 123 121 119 118 112 105 92 87 76 82 79 64 73 57 38 5 341 13 23 0
25 218 170 242 222 190 221 237 185 163 134 289 124 236 218 137 100 164 175 153 147 137 132 128 125 130 140 140 125 109 102 90 97 93 86 78 81 81 75 50 35 29 1 334
46 141 113 234 158 114 270 232 185 183 175 157 168 221 159 156 197 198 171 164 154 147 140 138 138 142 137 133 132 121 109 99 91 92 87 82 76 61 41 31 28 4 351 346
154 105 139 201 73 203 253 206 191 192 204 193 136 179 180 186 167 119 139 160 156 150 142 140 135 120 115 114 104 101 99 94 85 68 55 42 38 33 18 18 12 354 341 339
176 125 164 149 191 292 272 185 170 162 246 188 183 155 123 113 72 34 152 155 155 157 144 133 124 119 112 111 111 102 84 78 69 52 39 27 28 24 13 13 360 354 0 1
116 98 135 158 157 208 228 230 199 114 223 181 165 160 149 144 159 214 157 131 127 131 132 125 120 112 109 110 104 91 80 69 57 45 29 21 24 24 13 359 355 354 4 349
121 89 193 170 214 279 237 185 107 155 227 175 172 170 161 174 192 137 132 127 134 132 121 120 115 113 113 109 101 91 86 65 41 38 34 32 20 7 15 358 4 1 13 23
156 147 183 133 145 264 157 51 185 188 322 171 165 175 180 115 132 138 138 136 133 126 120 116 113 110 107 104 97 91 81 69 65 61 49 32 20 20 19 30 13 18 35 24
185 180 176 174 205 240 250 305 313 163 151 172 151 146 134 135 142 141 139 137 137 134 128 122 115 107 90 81 104 112 111 92 76 68 57 46 41 50 48 40 27 3 28 35
235 164 150 111 228 223 229 324 299 214 218 152 138 143 142 138 140 132 127 127 121 119 115 116 117 113 102 103 99 107 120 113 113 100 81 81 71 79 56 58 48 41 28 19
194 137 171 262 351 254 248 194 173 136 124 110 124 140 141 134 137 133 129 129 123 121 120 125 126 117 127 117 106 114 131 138 107 83 81 68 81 67 64 43 39 38 51 44
209 175 159 217 208 164 213 157 135 148 148 143 132 133 140 137 137 135 127 126 128 131 126 127 123 126 120 113 118 119 123 133 120 97 91 65 63 53 56 45 33 52 46 33